Location: Unspecified
(42.9300°N, 71.1866°W)
Time: 10:23:35
(UTC-04:00)

GENESIS II - Visible Passes

Search period start: 23 September 2014 00:00
Search period end: 03 October 2014 00:00
Orbit: 531 x 537 km, 64.5° (Epoch: 09 September)

Date Brightness Start Highest point End Pass type
(mag) Time Alt. Az. Time Alt. Az. Time Alt. Az.
27 Sep 7.3 05:48:51 10° NNE 05:49:50 11° NE 05:50:49 10° NE visible
28 Sep 7.2 05:38:19 10° NNE 05:39:53 12° NE 05:41:28 10° ENE visible
29 Sep 7.2 05:27:57 10° N 05:29:56 13° NE 05:31:55 10° ENE visible
30 Sep 7.1 05:17:39 10° N 05:19:58 15° NE 05:22:16 10° ENE visible
01 Oct 7.1 05:07:23 10° N 05:09:59 16° NE 05:12:34 10° E visible
02 Oct 7.0 04:57:09 10° N 04:59:59 18° NE 05:02:48 10° E visible
